This is the latest recevied weather packets stored in our database for station/object KA1JKB. If no packets are shown the sender has not sent any weather packets the latest 10 day(s).
| Time | Temp. | Humidity | Pressure | Rain* | Wind** | Luminosity | Snow |
|---|---|---|---|---|---|---|---|
| 1777480724 | 10.56° C | 89% | 1008.6 hPa | 0 mm | - | 360 W/m² | - |
| 1777480420 | 11.11° C | 88% | 1008.6 hPa | 0 mm | - | 308 W/m² | - |
| 1777480116 | 11.67° C | 91% | 1008.7 hPa | 0 mm | - | 488 W/m² | - |
| 1777479813 | 10.56° C | 91% | 1008.5 hPa | 0 mm | - | 579 W/m² | - |
| 1777479511 | 10.56° C | 91% | 1008.9 hPa | 0 mm | - | 389 W/m² | - |
| 1777479207 | 10° C | 91% | 1008.6 hPa | 0 mm | - | 473 W/m² | - |
| 1777478904 | 10° C | 91% | 1008.8 hPa | 0 mm | - | 251 W/m² | - |
| 1777478600 | 10° C | 91% | 1008.9 hPa | 0 mm | - | 217 W/m² | - |
| 1777478297 | 9.44° C | 91% | 1009 hPa | 0 mm | - | 162 W/m² | - |
| 1777477995 | 9.44° C | 91% | 1009.1 hPa | 0 mm | - | 116 W/m² | - |
| 1777477695 | 9.44° C | 91% | 1009.3 hPa | 0 mm | - | 111 W/m² | - |
| 1777477392 | 9.44° C | 90% | 1009.2 hPa | 0 mm | - | 99 W/m² | - |
| 1777477088 | 9.44° C | 91% | 1009.3 hPa | 0 mm | - | 107 W/m² | - |
| 1777476786 | 9.44° C | 90% | 1009.5 hPa | 0 mm | - | 117 W/m² | - |
| 1777476483 | 9.44° C | 90% | 1009.4 hPa | 0 mm | - | 115 W/m² | - |
| 1777476179 | 9.44° C | 90% | 1009.5 hPa | 0 mm | - | 130 W/m² | - |
| 1777475875 | 9.44° C | 91% | 1009.3 hPa | 0 mm | - | 124 W/m² | - |
| 1777475571 | 10° C | 91% | 1009.4 hPa | 0 mm | - | 116 W/m² | - |
| 1777475268 | 10° C | 91% | 1009.5 hPa | 0 mm | - | 148 W/m² | - |
| 1777474963 | 10° C | 91% | 1009.5 hPa | 0 mm | - | 200 W/m² | - |
| 1777474659 | 9.44° C | 91% | 1009.5 hPa | 0 mm | - | 271 W/m² | - |
| 1777474356 | 9.44° C | 91% | 1009.7 hPa | 0 mm | - | 218 W/m² | - |
| 1777474052 | 9.44° C | 91% | 1009.6 hPa | 0 mm | - | 224 W/m² | - |
| 1777473750 | 9.44° C | 91% | 1009.6 hPa | 0 mm | - | 276 W/m² | - |
| 1777473447 | 9.44° C | 92% | 1009.3 hPa | 0 mm | - | 274 W/m² | - |
* Rain latest hour (hover to see other rain measurements)
** Current wind speed in m/s (hover to see current wind gust speed)